Regional Weather Roundup
Issued by NWS Huntsville, AL

Home | Current Version | Previous Version | Text Only | Print | Product List | Glossary On
Versions: 1 2 3 4 5 6 7 8 9 10 11 12 13 14 15 16 17 18 19 20 21 22 23 24 25 26 27 28 29 30 31 32 33 34 35 36 37 38 39 40 41 42 43 44 45 46 47 48 49 50
000
ASUS44 KHUN 291710
RWRHUN

WEATHER ROUNDUP FOR THE TENNESSEE VALLEY
NATIONAL WEATHER SERVICE HUNTSVILLE AL
1200 PM CDT SUN MAY 29 2016

ALZ001>004-291800-
NORTHWEST ALABAMA

CITY           SKY/WX    TMP DP  RH WIND       PRES   REMARKS
COURTLAND HCN    N/A     81 N/A N/A CALM        N/A
RUSSELLVILLE     N/A     84 N/A N/A MISG        N/A
SHOALS AIRPORT MOSUNNY   87  63  44 NW7       30.14F
SHOALS TVA RES   N/A     84 N/A N/A MISG        N/A
$$

ALZ005>007-016-291800-
NORTH CENTRAL ALABAMA

CITY           SKY/WX    TMP DP  RH WIND       PRES   REMARKS
CULLMAN AG STN   N/A     81 N/A N/A N5          N/A
DECATUR AP     PTSUNNY   84  67  56 W12       30.14F
HUNTSVILLE AP  PTSUNNY   84  65  52 N9        30.13F
HUN NWS/UAH      N/A     84  61  45 NW5         N/A
MERIDIANVILLE  MOSUNNY   82  57  42 W3        30.14F
REDSTONE ARSN  MOSUNNY   83  65  53 NW2       30.12F
VINEMONT AP    FAIR      83  65  54 N7        30.17S
$$

ALZ008>010-291800-
NORTHEAST ALABAMA

CITY           SKY/WX    TMP DP  RH WIND       PRES   REMARKS
FORT PAYNE     MOSUNNY   82  55  39 N7        30.13F
SCOTTSBORO AP  MOSUNNY   84  64  51 N7        30.14F
SCOTTSBORO HCN   N/A     84 N/A N/A MISG        N/A
VALLEY HEAD      N/A     82 N/A N/A MISG        N/A
$$

TNZ076-096-097-291800-
SOUTHEASTERN MIDDLE TENNESSEE

CITY           SKY/WX    TMP DP  RH WIND       PRES   REMARKS
TULLAHOMA      MOSUNNY   81  66  61 W7        30.16F
WINCHESTER     MOSUNNY   84  63  48 W7        30.15F
$$

...SURROUNDING SITES...

CITY           SKY/WX    TMP DP  RH WIND       PRES   REMARKS
ATLANTA        PTSUNNY   86  59  39 N9        30.12F
ANNISTON       MOSUNNY   85  61  44 VRB5      30.13F
BIRMINGHAM     MOSUNNY   86  63  45 CALM      30.15F
CHATTANOOGA    PTSUNNY   85  61  44 VRB5      30.13F
DALTON         SUNNY     82  59  44 NW8       30.13F
GADSDEN        MOSUNNY   84  63  49 VRB5      30.13F
GOLDEN TRNGL   PTSUNNY   86  66  51 N9        30.13S
HALEYVILLE     FAIR      81  64  56 W5        30.17F
JACKSON TN     MOSUNNY   82  68  62 W5        30.12F
MEMPHIS        MOSUNNY   85  67  54 VRB3      30.12F
NASHVILLE      PTSUNNY   86  65  49 VRB5      30.13F
OXFORD MS      FAIR      84  64  51 W3        30.15S
ROME           SUNNY     87  60  40 MISG      30.12F
SAVANNAH       PTSUNNY   82  66  57 VRB3      30.12F
TUPELO         SUNNY     84  66  54 W5        30.12F
TUSCALOOSA     MOSUNNY   87  65  47 NE7       30.12F
$$

...GULF COAST WEATHER...

CITY           SKY/WX    TMP DP  RH WIND       PRES   REMARKS
GULFPORT       MOSUNNY   84  67  56 VRB5      30.11S
PASCAGOULA     MOSUNNY   87  66  49 VRB3      30.11F
MOBILE         PTSUNNY   86  69  56 CALM      30.12F HX  90
GULF SHORES    SUNNY     84  69  61 S8        30.11S
PENSACOLA      MOSUNNY   86  66  51 S7        30.10
DESTIN         SUNNY     87  74  64 S6        30.09F HX  95
PANAMA CITY    PTSUNNY   85  72  64 SW10      30.09S HX  90
APPALACHICOLA  SUNNY     85  74  69 S12       30.08F HX  92
$$




USA.gov is the U.S. government's official web portal to all federal, state and local government web resources and services.